NOAA 16 DEB, 41218

Orbit data source: Space-Track

NOAA 16 DEB, 41218 is space debris in SSO originally from a launch on Thu, 21 Sep 2000 UTC launched from the Air Force Western Test Range (AFWTR). Debris objects in space refer to the collection of defunct objects orbiting the Earth. Examples of debris include non-operational satellites, rocket bodies, and fragments generated from explosions, collisions, or faulty payload assembly.

Loading next visibility...
Identifier
41218, 2000-055DX
Orbit
SSO
Country
Flag of USUS
Related business
Manufacturer
Unknown
Mission
Spacecraft
Bus & Motor
Unknown
Mass
Unknown
Launch date (UTC)
2000-09-21 (26 years ago)
Launch vehicle
Unknown
Launch site
Air Force Western Test Range (AFWTR)
Object type
Payload
Rocket body
Debris
Shape & HBR
Unknown shape, 0.1 m
Radar Cross Section
Medium (>0.1 m² and <1 m²)

Expand to show TLE details & history
Last TLE update: 1 day ago

TLE from 1 day ago
0 NOAA 16 DEB
1 41218U 00055DX  26234.79156741  .00006994  00000-0  19151-2 0  9990
2 41218  98.7914 354.1177 0036480  84.0107 276.5240 14.47089846554949
Epoch: 2026-08-22T18:59Z
TLE epoch observation values (Epoch: 2026-08-22T18:59:51.424Z)
Latitude
0.00001°
Longitude
98.05653°
Altitude
735.263 km
Speed
7.489 km/s
True Right ascension
23h 36m 28s
True Declination
0° 00' 00"
Sunlit
Object was in full shadow at epoch
Visualization orbit readout
Latitude
Unknown
Longitude
Unknown
Altitude
Unknown
Speed
Unknown
Apparent Right ascension
Unknown
Apparent Declination
Unknown
Sunlit
N/A
Visualization observer readout
Local Sidereal Time
21:06:38
Azimuth
Unknown
Elevation
Unknown
Doppler factor
Unknown
Orbital elements
Apogee altitude
758.235 km
Perigee altitude
706.357 km
Semi-major axis
7,110.433 km
Eccentricity
0.00365
Inclination
98.7914°
RAAN
354.1177°
Arg. of periapsis
84.0107°
True anomaly
276.10847°
Mean anomaly
276.524°
Eccentric anomaly
276.31625°
Mean motion
3.61992 °/min
Orbital period
99.45 mins
BSTAR
0.0019151
Loading maneuver chart data...
Computing Atmospheric mass density...
Loading historical data...
Loading historical data...
Loading historical data...
Loading historical data...
Loading historical data...
Loading historical data...
Loading historical data...

Documentation

Showing up to 5 results
|